"Sample Date","Sample Time","Sample Value","Units","Flow Rate","Sample Interval","Number Channels","Micron Size 0","Counts/Channel 0","Micron Size 1","Counts/Channel 1","Micron Size 2","Counts/Channel 2","Micron Size 3","Counts/Channel 3","Micron Size 4","Counts/Channel 4","Micron Size 5","Counts/Channel 5","Micron Size 6","Counts/Channel 6","Micron Size 7","Counts/Channel 7","Micron Size 8","Counts/Channel 8","Micron Size 9","Counts/Channel 9","Micron Size 10","Counts/Channel 10","Micron Size 11","Counts/Channel 11","Micron Size 12","Counts/Channel 12","Micron Size 13","Counts/Channel 13","Micron Size 14","Counts/Channel 14","Micron Size 15","Counts/Channel 15","Micron Size 16","Counts/Channel 16","Micron Size 17","Counts/Channel 17","Micron Size 18","Counts/Channel 18","Micron Size 19","Counts/Channel 19","Micron Size 20","Counts/Channel 20","Micron Size 21","Counts/Channel 21","Micron Size 22","Counts/Channel 22","Micron Size 23","Counts/Channel 23","Micron Size 24","Counts/Channel 24","Micron Size 25","Counts/Channel 25","Micron Size 26","Counts/Channel 26","Micron Size 27","Counts/Channel 27","Micron Size 28","Counts/Channel 28","Micron Size 29","Counts/Channel 29","Micron Size 30","Counts/Channel 30","Micron Size 31","Counts/Channel 31"
"03/07/08","21:00:02",19568.000,"cc",28295.447,6.00,6,0.100,12894.000,0.200,5228.000,0.300,975.000,0.500,428.000,1.000,43.000,5.000,0
"03/07/08","21:00:08",20012.000,"cc",28335.973,6.00,6,0.100,12879.000,0.200,5504.000,0.300,1070.000,0.500,510.000,1.000,49.000,5.000,0
"03/07/08","21:00:14",19874.000,"cc",28321.422,6.00,6,0.100,12956.000,0.200,5505.000,0.300,1001.000,0.500,378.000,1.000,34.000,5.000,0
"03/07/08","21:00:20",19594.000,"cc",28335.244,6.00,6,0.100,12939.000,0.200,5308.000,0.300,927.000,0.500,380.000,1.000,40.000,5.000,0
"03/07/08","21:00:26",19691.000,"cc",28347.076,6.00,6,0.100,12893.000,0.200,5374.000,0.300,977.000,0.500,412.000,1.000,35.000,5.000,0
"03/07/08","21:00:32",19766.000,"cc",28304.813,6.00,6,0.100,12964.000,0.200,5377.000,0.300,961.000,0.500,428.000,1.000,36.000,5.000,0
"03/07/08","21:00:38",19386.000,"cc",28295.350,6.00,6,0.100,12743.000,0.200,5397.000,0.300,884.000,0.500,327.000,1.000,35.000,5.000,0
"03/07/08","21:00:44",21188.000,"cc",28309.877,6.00,6,0.100,13656.000,0.200,5735.000,0.300,1221.000,0.500,531.000,1.000,45.000,5.000,0
"03/07/08","21:00:50",20405.000,"cc",28251.732,6.00,6,0.100,13288.000,0.200,5546.000,0.300,1100.000,0.500,429.000,1.000,42.000,5.000,0
"03/07/08","21:00:56",20408.000,"cc",28463.356,6.00,6,0.100,13327.000,0.200,5632.000,0.300,1038.000,0.500,388.000,1.000,23.000,5.000,0
"03/07/08","21:01:02",19607.000,"cc",28337.508,6.00,6,0.100,13019.000,0.200,5249.000,0.300,928.000,0.500,377.000,1.000,34.000,5.000,0
"03/07/08","21:01:08",19948.000,"cc",28232.713,6.00,6,0.100,13146.000,0.200,5426.000,0.300,1019.000,0.500,331.000,1.000,26.000,5.000,0
"03/07/08","21:01:14",20075.000,"cc",28344.713,6.00,6,0.100,13307.000,0.200,5394.000,0.300,1002.000,0.500,335.000,1.000,37.000,5.000,0
"03/07/08","21:01:20",19728.000,"cc",28314.945,6.00,6,0.100,12976.000,0.200,5510.000,0.300,899.000,0.500,316.000,1.000,27.000,5.000,0
"03/07/08","21:01:26",19670.000,"cc",28231.547,6.00,6,0.100,13022.000,0.200,5436.000,0.300,868.000,0.500,329.000,1.000,15.000,5.000,0
"03/07/08","21:01:32",19855.000,"cc",28361.072,6.00,6,0.100,13259.000,0.200,5347.000,0.300,931.000,0.500,302.000,1.000,16.000,5.000,0
"03/07/08","21:01:38",19843.000,"cc",28333.565,6.00,6,0.100,13114.000,0.200,5341.000,0.300,970.000,0.500,385.000,1.000,33.000,5.000,0
"03/07/08","21:01:44",19374.000,"cc",28435.947,6.00,6,0.100,12855.000,0.200,5267.000,0.300,865.000,0.500,356.000,1.000,31.000,5.000,0
"03/07/08","21:01:50",19549.000,"cc",28240.176,6.00,6,0.100,12825.000,0.200,5373.000,0.300,939.000,0.500,384.000,1.000,28.000,5.000,0
"03/07/08","21:01:56",20598.000,"cc",28319.334,6.00,6,0.100,13492.000,0.200,5598.000,0.300,1039.000,0.500,427.000,1.000,42.000,5.000,0
"03/07/08","21:02:02",19823.000,"cc",28353.084,6.00,6,0.100,12986.000,0.200,5357.000,0.300,1017.000,0.500,425.000,1.000,38.000,5.000,0
"03/07/08","21:02:08",19625.000,"cc",28266.287,6.00,6,0.100,13308.000,0.200,5120.000,0.300,870.000,0.500,304.000,1.000,23.000,5.000,0
"03/07/08","21:02:14",19653.000,"cc",28311.285,6.00,6,0.100,13124.000,0.200,5299.000,0.300,876.000,0.500,326.000,1.000,28.000,5.000,0
"03/07/08","21:02:20",20518.000,"cc",28318.795,6.00,6,0.100,13541.000,0.200,5510.000,0.300,1027.000,0.500,415.000,1.000,25.000,5.000,0
"03/07/08","21:02:26",19335.000,"cc",28285.553,6.00,6,0.100,12845.000,0.200,5255.000,0.300,901.000,0.500,319.000,1.000,15.000,5.000,0
"03/07/08","21:02:32",19144.000,"cc",28303.043,6.00,6,0.100,12765.000,0.200,5172.000,0.300,838.000,0.500,346.000,1.000,23.000,5.000,0
"03/07/08","21:02:38",19668.000,"cc",28286.859,6.00,6,0.100,13136.000,0.200,5300.000,0.300,870.000,0.500,323.000,1.000,39.000,5.000,0
"03/07/08","21:02:44",19478.000,"cc",28359.900,6.00,6,0.100,12913.000,0.200,5316.000,0.300,875.000,0.500,346.000,1.000,28.000,5.000,0
"03/07/08","21:02:50",19530.000,"cc",28332.010,6.00,6,0.100,12952.000,0.200,5296.000,0.300,881.000,0.500,371.000,1.000,30.000,5.000,0
"03/07/08","21:02:56",19571.000,"cc",28257.506,6.00,6,0.100,12952.000,0.200,5328.000,0.300,899.000,0.500,359.000,1.000,33.000,5.000,0
"03/07/08","21:03:02",19242.000,"cc",28264.873,6.00,6,0.100,12917.000,0.200,5111.000,0.300,869.000,0.500,320.000,1.000,25.000,5.000,0
"03/07/08","21:03:08",19026.000,"cc",28348.422,6.00,6,0.100,12654.000,0.200,5125.000,0.300,906.000,0.500,317.000,1.000,24.000,5.000,0
"03/07/08","21:03:14",19773.000,"cc",28344.951,6.00,6,0.100,13149.000,0.200,5285.000,0.300,923.000,0.500,388.000,1.000,28.000,5.000,0
"03/07/08","21:03:20",19833.000,"cc",28309.785,6.00,6,0.100,13140.000,0.200,5394.000,0.300,936.000,0.500,330.000,1.000,33.000,5.000,0
"03/07/08","21:03:26",20185.000,"cc",28340.473,6.00,6,0.100,13370.000,0.200,5526.000,0.300,961.000,0.500,312.000,1.000,16.000,5.000,0
"03/07/08","21:03:32",20105.000,"cc",28326.074,6.00,6,0.100,13362.000,0.200,5378.000,0.300,957.000,0.500,378.000,1.000,30.000,5.000,0
"03/07/08","21:03:38",20453.000,"cc",28329.275,6.00,6,0.100,13425.000,0.200,5671.000,0.300,965.000,0.500,367.000,1.000,25.000,5.000,0
"03/07/08","21:03:44",20269.000,"cc",28307.164,6.00,6,0.100,13410.000,0.200,5526.000,0.300,947.000,0.500,357.000,1.000,29.000,5.000,0
"03/07/08","21:03:50",20208.000,"cc",28284.371,6.00,6,0.100,13384.000,0.200,5514.000,0.300,968.000,0.500,320.000,1.000,22.000,5.000,0
"03/07/08","21:03:56",20469.000,"cc",28296.658,6.00,6,0.100,13566.000,0.200,5634.000,0.300,922.000,0.500,328.000,1.000,19.000,5.000,0
"03/07/08","21:04:02",20535.000,"cc",28342.574,6.00,6,0.100,13666.000,0.200,5491.000,0.300,1000.000,0.500,355.000,1.000,23.000,5.000,0
"03/07/08","21:04:08",20312.000,"cc",28328.018,6.00,6,0.100,13479.000,0.200,5511.000,0.300,910.000,0.500,362.000,1.000,50.000,5.000,0
"03/07/08","21:04:14",20927.000,"cc",28324.764,6.00,6,0.100,13897.000,0.200,5666.000,0.300,1065.000,0.500,282.000,1.000,17.000,5.000,0
"03/07/08","21:04:20",20619.000,"cc",28339.053,6.00,6,0.100,13591.000,0.200,5705.000,0.300,949.000,0.500,353.000,1.000,21.000,5.000,0
"03/07/08","21:04:26",20437.000,"cc",28323.816,6.00,6,0.100,13613.000,0.200,5576.000,0.300,953.000,0.500,276.000,1.000,19.000,5.000,0
"03/07/08","21:04:32",20781.000,"cc",28290.078,6.00,6,0.100,13687.000,0.200,5730.000,0.300,1008.000,0.500,333.000,1.000,23.000,5.000,0
"03/07/08","21:04:38",21258.000,"cc",28339.508,6.00,6,0.100,14016.000,0.200,5862.000,0.300,1007.000,0.500,359.000,1.000,14.000,5.000,0
"03/07/08","21:04:44",21212.000,"cc",28342.107,6.00,6,0.100,14057.000,0.200,5812.000,0.300,991.000,0.500,333.000,1.000,19.000,5.000,0
"03/07/08","21:04:50",21309.000,"cc",28295.561,6.00,6,0.100,14137.000,0.200,5864.000,0.300,988.000,0.500,297.000,1.000,23.000,5.000,0
"03/07/08","21:04:56",21676.000,"cc",28270.688,6.00,6,0.100,14342.000,0.200,5980.000,0.300,1041.000,0.500,295.000,1.000,18.000,5.000,0
"03/07/08","21:05:02",21770.000,"cc",28352.535,6.00,6,0.100,14443.000,0.200,5999.000,0.300,1011.000,0.500,307.000,1.000,10.000,5.000,0
"03/07/08","21:05:08",21551.000,"cc",28329.385,6.00,6,0.100,14308.000,0.200,5937.000,0.300,998.000,0.500,285.000,1.000,23.000,5.000,0
"03/07/08","21:05:14",21970.000,"cc",28413.510,6.00,6,0.100,14727.000,0.200,5956.000,0.300,987.000,0.500,291.000,1.000,9.000,5.000,0
"03/07/08","21:05:20",21831.000,"cc",28265.467,6.00,6,0.100,14437.000,0.200,5991.000,0.300,1001.000,0.500,378.000,1.000,24.000,5.000,0
"03/07/08","21:05:26",22648.000,"cc",28263.232,6.00,6,0.100,14826.000,0.200,6298.000,0.300,1186.000,0.500,326.000,1.000,12.000,5.000,0
"03/07/08","21:05:32",22352.000,"cc",28313.920,6.00,6,0.100,14927.000,0.200,6059.000,0.300,1034.000,0.500,312.000,1.000,20.000,5.000,0
"03/07/08","21:05:38",22556.000,"cc",28313.717,6.00,6,0.100,14953.000,0.200,6199.000,0.300,1066.000,0.500,331.000,1.000,7.000,5.000,0
"03/07/08","21:05:44",22618.000,"cc",28355.482,6.00,6,0.100,14995.000,0.200,6190.000,0.300,1085.000,0.500,333.000,1.000,15.000,5.000,0
"03/07/08","21:05:50",22571.000,"cc",28271.807,6.00,6,0.100,14998.000,0.200,6067.000,0.300,1170.000,0.500,319.000,1.000,17.000,5.000,0
"03/07/08","21:05:56",22537.000,"cc",28371.963,6.00,6,0.100,14897.000,0.200,6182.000,0.300,1123.000,0.500,318.000,1.000,17.000,5.000,0
"03/07/08","21:06:02",21897.000,"cc",28318.707,6.00,6,0.100,14458.000,0.200,5953.000,0.300,1098.000,0.500,371.000,1.000,17.000,5.000,0
"03/07/08","21:06:08",22088.000,"cc",28294.785,6.00,6,0.100,14836.000,0.200,5934.000,0.300,1026.000,0.500,274.000,1.000,18.000,5.000,0
"03/07/08","21:06:14",21942.000,"cc",28263.561,6.00,6,0.100,14443.000,0.200,5988.000,0.300,1126.000,0.500,373.000,1.000,12.000,5.000,0
"03/07/08","21:06:20",21841.000,"cc",28293.807,6.00,6,0.100,14469.000,0.200,5862.000,0.300,1102.000,0.500,386.000,1.000,22.000,5.000,0
"03/07/08","21:06:26",21499.000,"cc",28399.080,6.00,6,0.100,14026.000,0.200,5911.000,0.300,1165.000,0.500,379.000,1.000,18.000,5.000,0
"03/07/08","21:06:32",21435.000,"cc",28327.977,6.00,6,0.100,14212.000,0.200,5841.000,0.300,1030.000,0.500,330.000,1.000,22.000,5.000,0
"03/07/08","21:06:38",21245.000,"cc",28268.145,6.00,6,0.100,14204.000,0.200,5709.000,0.300,1048.000,0.500,275.000,1.000,9.000,5.000,0
"03/07/08","21:06:44",21618.000,"cc",28290.752,6.00,6,0.100,14337.000,0.200,5836.000,0.300,1021.000,0.500,388.000,1.000,36.000,5.000,0
"03/07/08","21:06:50",21394.000,"cc",28386.098,6.00,6,0.100,14176.000,0.200,5791.000,0.300,1065.000,0.500,335.000,1.000,27.000,5.000,0
"03/07/08","21:06:56",21450.000,"cc",28307.469,6.00,6,0.100,14208.000,0.200,5788.000,0.300,1051.000,0.500,372.000,1.000,31.000,5.000,0
"03/07/08","21:07:02",20916.000,"cc",28300.385,6.00,6,0.100,13868.000,0.200,5670.000,0.300,1025.000,0.500,325.000,1.000,28.000,5.000,0
"03/07/08","21:07:08",20285.000,"cc",28308.426,6.00,6,0.100,13520.000,0.200,5495.000,0.300,971.000,0.500,278.000,1.000,21.000,5.000,0
"03/07/08","21:07:14",20600.000,"cc",28325.283,6.00,6,0.100,13747.000,0.200,5625.000,0.300,952.000,0.500,269.000,1.000,7.000,5.000,0
"03/07/08","21:07:20",20624.000,"cc",28302.604,6.00,6,0.100,13671.000,0.200,5702.000,0.300,961.000,0.500,276.000,1.000,14.000,5.000,0
"03/07/08","21:07:26",20464.000,"cc",28357.084,6.00,6,0.100,13681.000,0.200,5551.000,0.300,922.000,0.500,296.000,1.000,14.000,5.000,0
"03/07/08","21:07:32",20081.000,"cc",28342.900,6.00,6,0.100,13541.000,0.200,5417.000,0.300,864.000,0.500,250.000,1.000,9.000,5.000,0
"03/07/08","21:07:38",20302.000,"cc",28307.797,6.00,6,0.100,13659.000,0.200,5410.000,0.300,932.000,0.500,288.000,1.000,13.000,5.000,0
"03/07/08","21:07:44",20572.000,"cc",28327.811,6.00,6,0.100,13754.000,0.200,5553.000,0.300,962.000,0.500,296.000,1.000,7.000,5.000,0
"03/07/08","21:07:50",20148.000,"cc",28311.117,6.00,6,0.100,13559.000,0.200,5408.000,0.300,875.000,0.500,290.000,1.000,16.000,5.000,0
"03/07/08","21:07:56",21111.000,"cc",28301.709,6.00,6,0.100,13953.000,0.200,5790.000,0.300,1030.000,0.500,327.000,1.000,11.000,5.000,0
"03/07/08","21:08:02",19934.000,"cc",28325.010,6.00,6,0.100,13437.000,0.200,5309.000,0.300,915.000,0.500,262.000,1.000,11.000,5.000,0
"03/07/08","21:08:08",20719.000,"cc",28264.750,6.00,6,0.100,13884.000,0.200,5573.000,0.300,955.000,0.500,293.000,1.000,14.000,5.000,0
"03/07/08","21:08:14",20259.000,"cc",28296.981,6.00,6,0.100,13635.000,0.200,5400.000,0.300,939.000,0.500,266.000,1.000,19.000,5.000,0
"03/07/08","21:08:20",19948.000,"cc",28268.363,6.00,6,0.100,13343.000,0.200,5440.000,0.300,888.000,0.500,268.000,1.000,9.000,5.000,0
"03/07/08","21:08:26",20152.000,"cc",28233.441,6.00,6,0.100,13473.000,0.200,5449.000,0.300,909.000,0.500,306.000,1.000,15.000,5.000,0
"03/07/08","21:08:32",20829.000,"cc",28399.223,6.00,6,0.100,13865.000,0.200,5515.000,0.300,1055.000,0.500,369.000,1.000,25.000,5.000,0
"03/07/08","21:08:38",20628.000,"cc",28355.434,6.00,6,0.100,13676.000,0.200,5604.000,0.300,928.000,0.500,394.000,1.000,26.000,5.000,0
"03/07/08","21:08:44",20662.000,"cc",28336.244,6.00,6,0.100,13826.000,0.200,5466.000,0.300,987.000,0.500,354.000,1.000,29.000,5.000,0
"03/07/08","21:08:50",20425.000,"cc",28333.953,6.00,6,0.100,13590.000,0.200,5601.000,0.300,949.000,0.500,276.000,1.000,9.000,5.000,0
"03/07/08","21:08:56",20263.000,"cc",28373.240,6.00,6,0.100,13558.000,0.200,5514.000,0.300,869.000,0.500,312.000,1.000,10.000,5.000,0
"03/07/08","21:09:02",20580.000,"cc",28310.709,6.00,6,0.100,13599.000,0.200,5584.000,0.300,1046.000,0.500,331.000,1.000,20.000,5.000,0
"03/07/08","21:09:08",20656.000,"cc",28310.713,6.00,6,0.100,13628.000,0.200,5629.000,0.300,999.000,0.500,377.000,1.000,23.000,5.000,0
"03/07/08","21:09:14",20577.000,"cc",28350.209,6.00,6,0.100,13642.000,0.200,5517.000,0.300,1017.000,0.500,384.000,1.000,17.000,5.000,0
"03/07/08","21:09:20",20644.000,"cc",28293.242,6.00,6,0.100,13557.000,0.200,5602.000,0.300,1066.000,0.500,393.000,1.000,26.000,5.000,0
"03/07/08","21:09:26",20599.000,"cc",28344.496,6.00,6,0.100,13733.000,0.200,5447.000,0.300,1024.000,0.500,364.000,1.000,31.000,5.000,0
"03/07/08","21:09:32",20344.000,"cc",28369.199,6.00,6,0.100,13535.000,0.200,5417.000,0.300,958.000,0.500,408.000,1.000,26.000,5.000,0
"03/07/08","21:09:38",20341.000,"cc",28291.195,6.00,6,0.100,13645.000,0.200,5363.000,0.300,921.000,0.500,381.000,1.000,31.000,5.000,0
"03/07/08","21:09:44",19682.000,"cc",28238.930,6.00,6,0.100,13038.000,0.200,5436.000,0.300,878.000,0.500,316.000,1.000,14.000,5.000,0
"03/07/08","21:09:50",20227.000,"cc",28331.609,6.00,6,0.100,13535.000,0.200,5365.000,0.300,931.000,0.500,369.000,1.000,27.000,5.000,0
"03/07/08","21:09:56",20206.000,"cc",28385.746,6.00,6,0.100,13435.000,0.200,5379.000,0.300,987.000,0.500,379.000,1.000,26.000,5.000,0
"03/07/08","21:10:02",20351.000,"cc",28236.404,6.00,6,0.100,13522.000,0.200,5425.000,0.300,1015.000,0.500,366.000,1.000,23.000,5.000,0
"03/07/08","21:10:08",20218.000,"cc",28288.188,6.00,6,0.100,13525.000,0.200,5405.000,0.300,948.000,0.500,314.000,1.000,26.000,5.000,0
"03/07/08","21:10:14",19825.000,"cc",28396.221,6.00,6,0.100,13182.000,0.200,5305.000,0.300,937.000,0.500,367.000,1.000,34.000,5.000,0
"03/07/08","21:10:20",19877.000,"cc",28300.723,6.00,6,0.100,13182.000,0.200,5296.000,0.300,952.000,0.500,399.000,1.000,48.000,5.000,0
"03/07/08","21:10:26",20198.000,"cc",28345.775,6.00,6,0.100,13291.000,0.200,5393.000,0.300,1009.000,0.500,464.000,1.000,41.000,5.000,0
"03/07/08","21:10:32",19501.000,"cc",28243.984,6.00,6,0.100,12999.000,0.200,5114.000,0.300,921.000,0.500,416.000,1.000,51.000,5.000,0
"03/07/08","21:10:38",19235.000,"cc",28271.607,6.00,6,0.100,12849.000,0.200,5134.000,0.300,871.000,0.500,351.000,1.000,30.000,5.000,0
"03/07/08","21:10:44",18870.000,"cc",28298.398,6.00,6,0.100,12759.000,0.200,4903.000,0.300,826.000,0.500,350.000,1.000,32.000,5.000,0
"03/07/08","21:10:50",18890.000,"cc",28421.055,6.00,6,0.100,12670.000,0.200,5002.000,0.300,866.000,0.500,325.000,1.000,27.000,5.000,0
"03/07/08","21:10:56",19301.000,"cc",28349.449,6.00,6,0.100,12841.000,0.200,5085.000,0.300,906.000,0.500,426.000,1.000,43.000,5.000,0
"03/07/08","21:11:02",19152.000,"cc",28207.207,6.00,6,0.100,12689.000,0.200,5143.000,0.300,899.000,0.500,388.000,1.000,33.000,5.000,0
"03/07/08","21:11:08",19954.000,"cc",28336.914,6.00,6,0.100,13227.000,0.200,5184.000,0.300,970.000,0.500,505.000,1.000,68.000,5.000,0
"03/07/08","21:11:14",19830.000,"cc",28366.490,6.00,6,0.100,13092.000,0.200,5234.000,0.300,977.000,0.500,492.000,1.000,35.000,5.000,0
"03/07/08","21:11:20",19536.000,"cc",28300.049,6.00,6,0.100,13103.000,0.200,5044.000,0.300,934.000,0.500,416.000,1.000,39.000,5.000,0
"03/07/08","21:11:26",19364.000,"cc",28306.283,6.00,6,0.100,12980.000,0.200,5073.000,0.300,880.000,0.500,399.000,1.000,32.000,5.000,0
"03/07/08","21:11:32",19450.000,"cc",28392.598,6.00,6,0.100,12925.000,0.200,5126.000,0.300,897.000,0.500,446.000,1.000,56.000,5.000,0
"03/07/08","21:11:38",19537.000,"cc",28327.340,6.00,6,0.100,12941.000,0.200,5096.000,0.300,946.000,0.500,488.000,1.000,66.000,5.000,0
"03/07/08","21:11:44",19310.000,"cc",28245.352,6.00,6,0.100,12816.000,0.200,5058.000,0.300,973.000,0.500,424.000,1.000,39.000,5.000,0
"03/07/08","21:11:50",19643.000,"cc",28251.191,6.00,6,0.100,13049.000,0.200,5203.000,0.300,924.000,0.500,423.000,1.000,44.000,5.000,0
"03/07/08","21:11:56",21593.000,"cc",28390.775,6.00,6,0.100,13640.000,0.200,5527.000,0.300,1340.000,0.500,910.000,1.000,176.000,5.000,0
"03/07/08","21:12:02",19871.000,"cc",28298.027,6.00,6,0.100,13207.000,0.200,5212.000,0.300,956.000,0.500,442.000,1.000,54.000,5.000,0
"03/07/08","21:12:08",19726.000,"cc",28324.106,6.00,6,0.100,13149.000,0.200,5203.000,0.300,910.000,0.500,427.000,1.000,37.000,5.000,0
"03/07/08","21:12:14",19725.000,"cc",28343.232,6.00,6,0.100,13099.000,0.200,5190.000,0.300,919.000,0.500,448.000,1.000,69.000,5.000,0
"03/07/08","21:12:20",19877.000,"cc",28333.211,6.00,6,0.100,13084.000,0.200,5309.000,0.300,976.000,0.500,461.000,1.000,47.000,5.000,0
"03/07/08","21:12:26",19922.000,"cc",28217.045,6.00,6,0.100,13312.000,0.200,5234.000,0.300,908.000,0.500,419.000,1.000,49.000,5.000,0
"03/07/08","21:12:32",20528.000,"cc",28329.961,6.00,6,0.100,13674.000,0.200,5361.000,0.300,974.000,0.500,477.000,1.000,42.000,5.000,0
"03/07/08","21:12:38",20175.000,"cc",28365.701,6.00,6,0.100,13430.000,0.200,5299.000,0.300,955.000,0.500,442.000,1.000,49.000,5.000,0
"03/07/08","21:12:44",20021.000,"cc",28285.229,6.00,6,0.100,13176.000,0.200,5301.000,0.300,1010.000,0.500,483.000,1.000,51.000,5.000,0
"03/07/08","21:12:50",19820.000,"cc",28356.895,6.00,6,0.100,13209.000,0.200,5153.000,0.300,943.000,0.500,434.000,1.000,81.000,5.000,0
"03/07/08","21:12:56",19236.000,"cc",28301.180,6.00,6,0.100,12835.000,0.200,5125.000,0.300,818.000,0.500,403.000,1.000,55.000,5.000,0
"03/07/08","21:13:02",19502.000,"cc",28279.861,6.00,6,0.100,13024.000,0.200,5063.000,0.300,932.000,0.500,428.000,1.000,55.000,5.000,0
"03/07/08","21:13:08",19792.000,"cc",28259.481,6.00,6,0.100,12956.000,0.200,5273.000,0.300,1024.000,0.500,473.000,1.000,66.000,5.000,0
"03/07/08","21:13:14",19724.000,"cc",28371.676,6.00,6,0.100,13202.000,0.200,5133.000,0.300,891.000,0.500,460.000,1.000,38.000,5.000,0
"03/07/08","21:13:20",19393.000,"cc",28345.711,6.00,6,0.100,12991.000,0.200,5048.000,0.300,931.000,0.500,378.000,1.000,45.000,5.000,0
"03/07/08","21:13:26",19181.000,"cc",28390.938,6.00,6,0.100,12910.000,0.200,4937.000,0.300,862.000,0.500,415.000,1.000,57.000,5.000,0
"03/07/08","21:13:32",19004.000,"cc",28190.908,6.00,6,0.100,12702.000,0.200,4943.000,0.300,903.000,0.500,405.000,1.000,51.000,5.000,0
"03/07/08","21:13:38",19220.000,"cc",28312.801,6.00,6,0.100,12836.000,0.200,5038.000,0.300,872.000,0.500,412.000,1.000,62.000,5.000,0
"03/07/08","21:13:44",19288.000,"cc",28246.627,6.00,6,0.100,12850.000,0.200,5044.000,0.300,942.000,0.500,398.000,1.000,54.000,5.000,0
"03/07/08","21:13:50",19174.000,"cc",28354.629,6.00,6,0.100,12952.000,0.200,4874.000,0.300,902.000,0.500,395.000,1.000,51.000,5.000,0
"03/07/08","21:13:56",19607.000,"cc",28359.022,6.00,6,0.100,13171.000,0.200,5036.000,0.300,882.000,0.500,459.000,1.000,59.000,5.000,0
"03/07/08","21:14:02",19382.000,"cc",28253.705,6.00,6,0.100,13047.000,0.200,5040.000,0.300,873.000,0.500,379.000,1.000,43.000,5.000,0
"03/07/08","21:14:08",19024.000,"cc",28287.147,6.00,6,0.100,12747.000,0.200,4922.000,0.300,878.000,0.500,434.000,1.000,43.000,5.000,0
"03/07/08","21:14:14",18998.000,"cc",28290.537,6.00,6,0.100,12858.000,0.200,4873.000,0.300,850.000,0.500,375.000,1.000,42.000,5.000,0
"03/07/08","21:14:20",19173.000,"cc",28393.246,6.00,6,0.100,12957.000,0.200,4952.000,0.300,848.000,0.500,387.000,1.000,29.000,5.000,0
"03/07/08","21:14:26",19051.000,"cc",28353.055,6.00,6,0.100,12882.000,0.200,4904.000,0.300,875.000,0.500,345.000,1.000,45.000,5.000,0
"03/07/08","21:14:32",19353.000,"cc",28207.479,6.00,6,0.100,12940.000,0.200,5079.000,0.300,923.000,0.500,373.000,1.000,38.000,5.000,0
"03/07/08","21:14:38",19212.000,"cc",28275.699,6.00,6,0.100,12888.000,0.200,4959.000,0.300,893.000,0.500,422.000,1.000,50.000,5.000,0
"03/07/08","21:14:44",20389.000,"cc",28417.904,6.00,6,0.100,13473.000,0.200,5280.000,0.300,1055.000,0.500,514.000,1.000,67.000,5.000,0
"03/07/08","21:14:50",19871.000,"cc",28370.561,6.00,6,0.100,13325.000,0.200,5191.000,0.300,895.000,0.500,417.000,1.000,43.000,5.000,0
"03/07/08","21:14:56",19795.000,"cc",28320.596,6.00,6,0.100,13204.000,0.200,5226.000,0.300,940.000,0.500,397.000,1.000,28.000,5.000,0
"03/07/08","21:15:02",19551.000,"cc",28235.844,6.00,6,0.100,13129.000,0.200,5178.000,0.300,878.000,0.500,330.000,1.000,36.000,5.000,0
"03/07/08","21:15:08",19898.000,"cc",28312.754,6.00,6,0.100,13328.000,0.200,5238.000,0.300,910.000,0.500,380.000,1.000,42.000,5.000,0
"03/07/08","21:15:14",20164.000,"cc",28347.934,6.00,6,0.100,13417.000,0.200,5320.000,0.300,973.000,0.500,409.000,1.000,45.000,5.000,0
"03/07/08","21:15:20",19963.000,"cc",28326.856,6.00,6,0.100,13405.000,0.200,5172.000,0.300,977.000,0.500,383.000,1.000,26.000,5.000,0
"03/07/08","21:15:26",20233.000,"cc",28364.772,6.00,6,0.100,13449.000,0.200,5377.000,0.300,952.000,0.500,423.000,1.000,32.000,5.000,0
"03/07/08","21:15:32",20534.000,"cc",28351.199,6.00,6,0.100,13696.000,0.200,5391.000,0.300,1001.000,0.500,413.000,1.000,33.000,5.000,0
"03/07/08","21:15:38",20522.000,"cc",28286.645,6.00,6,0.100,13625.000,0.200,5534.000,0.300,976.000,0.500,357.000,1.000,30.000,5.000,0
"03/07/08","21:15:44",20468.000,"cc",28342.838,6.00,6,0.100,13575.000,0.200,5480.000,0.300,1011.000,0.500,373.000,1.000,29.000,5.000,0
"03/07/08","21:15:50",21018.000,"cc",28344.088,6.00,6,0.100,14137.000,0.200,5446.000,0.300,1000.000,0.500,401.000,1.000,34.000,5.000,0
"03/07/08","21:15:56",20628.000,"cc",28393.162,6.00,6,0.100,13756.000,0.200,5439.000,0.300,1026.000,0.500,366.000,1.000,41.000,5.000,0
"03/07/08","21:16:02",20690.000,"cc",28273.092,6.00,6,0.100,13765.000,0.200,5486.000,0.300,1003.000,0.500,409.000,1.000,27.000,5.000,0
"03/07/08","21:16:08",20605.000,"cc",28293.100,6.00,6,0.100,13798.000,0.200,5318.000,0.300,1038.000,0.500,418.000,1.000,33.000,5.000,0
"03/07/08","21:16:14",20799.000,"cc",28224.479,6.00,6,0.100,13895.000,0.200,5476.000,0.300,1009.000,0.500,388.000,1.000,31.000,5.000,0
"03/07/08","21:16:20",21005.000,"cc",28260.209,6.00,6,0.100,14075.000,0.200,5554.000,0.300,977.000,0.500,366.000,1.000,33.000,5.000,0
"03/07/08","21:16:26",20864.000,"cc",28334.158,6.00,6,0.100,13949.000,0.200,5545.000,0.300,1010.000,0.500,340.000,1.000,20.000,5.000,0
"03/07/08","21:16:32",20395.000,"cc",28337.811,6.00,6,0.100,13747.000,0.200,5347.000,0.300,916.000,0.500,358.000,1.000,27.000,5.000,0
"03/07/08","21:16:38",20958.000,"cc",28403.863,6.00,6,0.100,14046.000,0.200,5547.000,0.300,994.000,0.500,354.000,1.000,17.000,5.000,0
"03/07/08","21:16:44",20495.000,"cc",28327.010,6.00,6,0.100,13686.000,0.200,5555.000,0.300,915.000,0.500,321.000,1.000,18.000,5.000,0